CZ-3B DEB, 42475

Orbit data source: Space-Track

CZ-3B DEB, 42475 is space debris in HEO originally from a launch on Mon, 19 Dec 2011 UTC launched from the Xichang Space Center, China (XSC). Debris objects in space refer to the collection of defunct objects orbiting the Earth. Examples of debris include non-operational satellites, rocket bodies, and fragments generated from explosions, collisions, or faulty payload assembly.

Loading next visibility...
Identifier
42475, 2011-077AQ
Orbit
HEO
Country
Flag of CNCN / PRC
Related business
Manufacturer
CALT
Mission
Spacecraft
Bus & Motor
Unknown
Mass
Unknown
Launch date (UTC)
2011-12-19 (14 years ago)
Launch vehicle
Unknown
Launch site
Xichang Space Center, China (XSC)
Object type
Payload
Rocket body
Debris
Shape & HBR
Unknown shape, 0.2 m
Radar Cross Section
Medium (>0.1 m² and <1 m²)

Expand to show TLE details & history
Last TLE update: 2 days ago

TLE from 2 days ago
0 CZ-3B DEB
1 42475U 11077AQ  25289.55616159 -.00000260  00000-0  38928-2 0  9993
2 42475  26.5521   9.9267 7408303  19.0552 357.9988  1.91373981 28220
Epoch: 2025-10-16T13:20Z
TLE epoch observation values (Epoch: 2025-10-16T13:20:52.361Z)
Latitude
-0.00019°
Longitude
144.39695°
Altitude
857.612 km
Speed
9.779 km/s
True Right ascension
00h 39m 43s
True Declination
0° 00' 01"
Sunlit
Object was in full shadow at epoch
Visualization orbit readout
Latitude
Unknown
Longitude
Unknown
Altitude
Unknown
Speed
Unknown
Apparent Right ascension
Unknown
Apparent Declination
Unknown
Sunlit
N/A
Visualization observer readout
Local Sidereal Time
09:19:36
Azimuth
Unknown
Elevation
Unknown
Doppler factor
Unknown
Orbital elements
Apogee altitude
41,333.993 km
Perigee altitude
725.105 km
Semi-major axis
27,407.686 km
Eccentricity
0.74083
Inclination
26.5521°
RAAN
9.9267°
Arg. of periapsis
19.0552°
True anomaly
340.32271°
Mean anomaly
357.9988°
Eccentric anomaly
352.3435°
Mean motion
0.47834 °/min
Orbital period
752.61 mins
BSTAR
0.0038928
Loading maneuver chart data...
Computing Atmospheric mass density...
Loading historical data...
Loading historical data...
Loading historical data...
Loading historical data...
Loading historical data...
Loading historical data...
Loading historical data...

Documentation

Showing up to 5 results
|